Dewpoint
50 49 51 55 57 57 57 58 59 59 61 59 59 60 61 63 67 69 70 70 70 70 70 70 70 70 69 68 67 67 68 67
47 47 48 47 46 56 57 59 57 59 57 58 58 57 58 59 59 61 63 67 69 69 69 69 69 69 68 67 66 67 67 67
45 46 46 46 44 49 51 54 54 55 52 54 54 53 53 53 57 59 61 63 68 68 68 68 68 68 68 67 66 67 66 66
45 46 46 45 45 46 46 48 48 50 48 49 51 51 51 53 54 57 57 59 60 66 67 67 67 68 68 67 67 66 66 65
42 44 45 45 46 46 46 47 48 48 47 49 49 48 50 50 50 50 51 54 52 55 56 66 67 67 67 67 66 66 66 65
40 43 44 45 46 46 46 46 47 46 47 48 47 48 47 48 48 49 49 50 50 53 55 58 65 67 67 66 66 65 65 65
40 42 44 44 44 45 45 46 45 46 45 47 47 46 46 48 46 46 46 48 48 49 50 52 54 58 64 66 66 66 66 67
40 42 43 42 43 42 43 43 44 43 45 45 46 46 45 45 45 45 44 44 44 45 46 48 50 54 57 60 62 66 66 66
39 41 42 41 41 42 41 43 43 43 42 43 44 43 43 43 43 42 42 41 42 43 44 45 47 51 53 58 63 64 66 65
40 41 41 40 40 40 41 41 42 41 41 42 42 42 41 41 39 39 40 40 41 42 42 44 45 49 49 52 56 61 63 65
38 39 39 39 38 38 39 39 39 40 40 39 39 37 39 39 38 39 40 41 41 41 41 42 43 43 45 48 52 57 61 63
37 39 38 37 37 37 38 38 39 38 36 36 35 36 37 37 38 38 39 39 39 40 41 42 43 43 43 44 47 52 54 59
37 37 36 35 35 35 35 35 36 34 34 34 34 35 36 36 36 36 37 36 37 38 39 40 42 42 43 43 46 47 51 55
35 35 35 35 35 34 35 35 34 34 33 32 33 33 34 33 36 34 34 35 36 37 38 39 40 42 43 43 42 46 52 55
34 35 34 36 35 34 34 34 33 32 31 31 31 33 33 34 34 34 33 34 35 36 37 39 39 41 43 44 43 45 46 52
34 34 33 35 35 34 32 32 31 31 31 30 31 32 32 33 33 32 32 34 34 34 36 37 39 39 42 42 43 44 45 43
34 33 33 34 34 33 33 31 32 31 31 30 31 31 32 31 32 30 31 32 33 34 35 36 38 39 40 41 44 44 43 44
29 30 32 33 32 32 31 31 30 30 30 30 30 31 31 30 31 30 31 31 32 33 34 34 35 37 39 41 43 42 43 43
26 28 30 32 31 31 30 30 29 28 28 28 29 30 30 29 30 30 30 30 32 32 32 32 33 34 36 37 39 41 45 45
28 30 29 30 30 29 29 28 28 28 27 28 28 28 29 29 28 29 30 29 32 30 30 31 30 32 33 33 36 37 40 42
Lifted_Index
5 6 8 9 9 8 8 7 6 5 4 3 2 1 -1 -2 -3 -3 -4 -4 -4 -4 -5 -5 -5 -5 -5 -4 -3 -2 -2 -2
8 9 10 10 10 9 8 7 7 7 6 6 5 4 3 1 -0 -1 -2 -3 -4 -4 -4 -4 -4 -5 -4 -4 -3 -2 -2 -2
11 11 11 11 11 10 9 9 9 9 9 9 9 8 7 6 5 4 2 -0 -2 -3 -4 -4 -4 -4 -4 -4 -3 -3 -2 -2
11 11 11 11 11 11 11 11 11 11 11 11 11 10 10 9 9 8 6 4 3 1 -1 -3 -3 -4 -4 -4 -3 -3 -3 -2
11 11 11 11 11 12 12 12 12 12 12 11 11 11 11 11 10 10 9 8 7 5 3 0 -2 -3 -3 -4 -3 -3 -3 -3
11 11 11 11 12 12 12 12 12 12 12 12 11 11 11 11 11 11 11 10 10 9 7 4 1 -1 -2 -3 -3 -3 -3 -3
11 12 12 12 12 12 12 12 12 12 12 12 12 12 11 11 11 11 11 11 11 10 10 8 6 3 1 -1 -2 -3 -3 -3
12 12 12 12 12 12 12 12 12 12 12 13 13 12 12 12 12 12 12 12 12 12 11 10 9 7 5 2 -1 -2 -3 -3
12 12 12 12 12 12 12 12 12 13 13 13 14 13 13 13 12 12 12 13 13 12 12 12 11 10 8 5 2 -0 -2 -2
12 12 12 12 12 12 13 13 13 14 14 14 15 15 14 14 13 13 13 13 13 13 12 12 12 11 10 8 5 3 0 -1
12 12 12 12 12 13 13 13 14 14 15 15 16 16 16 16 15 15 15 14 13 13 13 12 12 12 11 10 8 6 3 2
12 12 12 12 12 12 13 13 13 14 15 16 16 17 17 17 17 17 17 16 15 14 13 13 12 12 11 11 10 8 6 5
12 12 12 12 12 12 12 12 13 14 15 16 17 17 18 19 19 19 19 17 16 15 14 13 13 13 12 11 10 9 7 6
11 12 12 13 13 13 12 12 13 13 14 15 16 18 19 20 20 20 20 19 18 17 15 14 13 13 13 11 10 9 7 6
11 12 13 14 14 13 13 13 13 13 13 14 16 18 20 21 21 21 20 19 18 17 16 15 13 13 13 12 11 9 8 6
11 12 13 14 15 14 14 14 13 13 13 14 15 17 19 20 21 20 20 19 18 17 16 15 14 13 13 13 12 11 9 8
11 11 13 14 15 15 15 14 14 14 14 14 14 15 17 19 19 19 18 18 17 16 16 15 14 14 13 13 12 12 11 10
11 11 12 14 14 15 15 14 14 15 15 14 14 14 15 17 18 18 18 17 17 16 15 14 14 13 13 12 12 11 11 11
10 10 12 13 14 14 14 15 15 15 15 15 15 15 15 15 16 17 17 18 17 16 15 14 13 12 11 11 11 11 11 10
9 10 11 12 13 14 14 15 15 15 15 15 16 15 15 15 16 16 17 18 18 17 16 15 13 12 11 10 11 11 10 10